RH
70 70 69 79 78 78 92 90 86 89 91 88 83 89 89 93 91 91 90 88 91 92
73 71 74 85 78 81 84 86 91 89 89 88 81 86 90 95 92 93 92 92 94 92
76 75 76 83 85 89 86 86 91 91 87 86 82 86 91 95 92 95 96 93 92 93
75 76 78 78 82 87 89 90 87 88 85 85 83 85 89 95 94 92 94 94 93 88
72 75 80 77 78 84 85 87 84 86 86 84 81 80 85 91 86 88 92 92 94 92
72 76 79 79 75 89 83 85 84 84 85 85 83 84 80 84 87 86 86 87 90 93
74 75 74 74 76 79 87 89 85 84 84 82 81 81 83 82 88 88 85 90 88 88
74 74 77 79 77 76 85 83 86 86 86 85 82 79 83 89 91 91 90 88 95 93
76 77 81 84 85 83 85 86 90 90 87 90 83 85 87 82 92 92 94 96 93 93
76 81 84 85 88 90 87 90 96 91 90 93 89 90 90 88 93 96 96 91 93 90
78 80 83 87 90 91 88 95 97 96 94 91 91 94 93 91 92 96 94 92 93 90
79 81 83 89 90 90 89 90 97 96 96 95 96 98 96 96 94 97 96 96 92 95
77 81 85 85 87 85 90 94 96 97 96 98 97 100 98 96 98 99 97 98 96 96
76 80 81 83 89 94 96 96 96 96 98 98 98 100 99 99 98 98 99 98 98 97
Wind_Speed
17 11 11 10 8 8 7 7 9 10 9 8 7 6 6 4 4 5 5 6 4 3
15 15 12 10 10 8 8 6 9 11 10 8 8 8 7 5 6 6 5 5 4 3
16 15 12 11 11 10 9 8 9 11 11 9 9 9 8 5 5 6 4 4 6 4
15 14 12 13 12 12 11 10 11 12 12 11 10 9 9 7 7 7 7 5 6 7
18 16 15 15 13 12 13 11 12 12 11 11 11 10 11 10 9 10 8 8 7 7
18 17 17 17 16 12 13 13 12 12 13 12 12 11 11 10 10 10 10 9 9 7
20 19 18 17 16 15 13 12 13 14 13 13 12 12 12 11 10 9 10 8 7 7
19 18 16 16 16 15 14 13 13 12 12 12 12 10 12 12 12 12 10 6 6 6
19 18 17 16 16 14 13 13 13 13 14 13 10 15 19 17 13 11 9 8 8 6
19 19 18 16 15 16 16 14 14 14 14 14 15 19 21 19 10 10 10 11 9 8
19 20 18 17 17 16 14 15 14 14 14 14 14 15 13 18 10 8 10 10 9 10
20 19 18 19 18 15 14 14 14 13 14 14 7 13 12 11 9 7 8 6 8 8
20 20 21 20 19 16 14 14 10 12 11 11 8 14 18 16 7 7 5 5 5 11
18 20 19 17 15 16 15 12 12 12 11 11 12 11 16 19 10 7 5 4 4 4
Wind_Direction
198 195 198 191 192 200 194 197 191 192 190 189 175 179 174 175 180 181 185 186 184 170
197 196 196 192 195 194 194 185 185 189 193 183 181 180 180 181 187 182 186 198 184 175
194 196 189 188 195 190 193 191 180 186 192 186 185 181 182 183 189 184 189 184 184 191
196 193 190 196 199 190 184 184 184 190 191 190 188 184 188 190 182 194 197 186 186 200
194 191 193 201 204 192 192 186 186 187 190 192 194 189 194 191 193 199 199 201 193 208
197 193 197 202 205 193 193 191 187 189 192 192 192 190 200 198 193 202 208 198 197 207
198 198 200 201 204 201 193 186 189 191 195 198 197 198 198 197 198 202 214 206 203 202
196 199 199 201 204 202 197 197 186 182 191 193 198 200 198 195 197 203 214 172 210 212
193 195 197 199 200 198 196 197 184 185 187 189 199 199 197 197 199 200 194 178 205 223
192 197 197 194 194 197 196 187 187 189 187 193 205 200 203 194 192 186 188 203 201 224
195 197 191 191 198 198 193 189 186 188 190 201 214 203 183 192 193 186 187 196 194 208
195 197 191 194 195 193 191 194 192 185 192 206 200 169 183 166 189 186 184 190 205 203
195 194 195 193 191 189 193 196 185 191 194 186 176 175 174 165 170 187 193 196 178 195
195 196 197 193 187 185 184 182 188 189 178 175 174 181 164 148 160 186 197 177 187 205